Time,TemperatureF,DewpointF,PressureIn,WindDirection,WindDirectionDegrees,WindSpeedMPH,WindSpeedGustMPH,Humidity,HourlyPrecipIn,Conditions,Clouds,dailyrainin,SolarRadiationWatts/m^2,SoftwareType,DateUTC
2013-06-06 00:01:00,71.0,25.4,29.69,NNE,14,5.0,5.0,18,0.00,,,0.00,0,WeatherCatV1.11B39,2013-06-06 07:01:00,
2013-06-06 00:06:00,71.7,25.9,29.69,NNE,25,3.0,3.0,18,0.00,,,0.00,0,WeatherCatV1.11B39,2013-06-06 07:06:00,
2013-06-06 00:11:00,72.9,25.5,29.69,NNE,25,0.0,3.0,17,0.00,,,0.00,0,WeatherCatV1.11B39,2013-06-06 07:11:00,
2013-06-06 00:16:00,72.7,25.4,29.69,NNE,25,1.0,2.0,17,0.00,,,0.00,0,WeatherCatV1.11B39,2013-06-06 07:16:00,
2013-06-06 00:21:00,72.7,25.4,29.69,NNE,30,1.0,2.0,17,0.00,,,0.00,0,WeatherCatV1.11B39,2013-06-06 07:21:00,
2013-06-06 00:26:00,72.6,25.3,29.69,NNE,30,0.0,1.0,17,0.00,,,0.00,0,WeatherCatV1.11B39,2013-06-06 07:26:00,
2013-06-06 00:31:00,72.4,26.5,29.69,NNE,30,1.0,2.0,18,0.00,,,0.00,0,WeatherCatV1.11B39,2013-06-06 07:31:00,
2013-06-06 00:36:00,71.8,26.0,29.69,NNE,30,1.0,1.0,18,0.00,,,0.00,0,WeatherCatV1.11B39,2013-06-06 07:36:00,
2013-06-06 00:41:00,71.6,25.9,29.69,NNE,30,1.0,2.0,18,0.00,,,0.00,0,WeatherCatV1.11B39,2013-06-06 07:41:00,
2013-06-06 00:46:00,71.1,26.7,29.69,NNE,30,1.0,2.0,19,0.00,,,0.00,0,WeatherCatV1.11B39,2013-06-06 07:46:00,
2013-06-06 00:51:00,70.8,26.5,29.69,NNE,30,0.0,1.0,19,0.00,,,0.00,0,WeatherCatV1.11B39,2013-06-06 07:51:00,
2013-06-06 00:56:00,70.0,25.8,29.69,NNE,30,3.0,3.0,19,0.00,,,0.00,0,WeatherCatV1.11B39,2013-06-06 07:56:00,
2013-06-06 01:01:00,69.5,25.4,29.69,NNE,30,2.0,3.0,19,0.00,,,0.00,0,WeatherCatV1.11B39,2013-06-06 08:01:00,
2013-06-06 01:06:00,70.3,24.8,29.69,NNE,30,2.0,2.0,18,0.00,,,0.00,0,WeatherCatV1.11B39,2013-06-06 08:06:00,
2013-06-06 01:11:00,71.0,25.4,29.69,NE,41,2.0,3.0,18,0.00,,,0.00,0,WeatherCatV1.11B39,2013-06-06 08:11:00,
2013-06-06 01:16:00,71.7,25.9,29.69,NE,41,2.0,2.0,18,0.00,,,0.00,0,WeatherCatV1.11B39,2013-06-06 08:16:00,
2013-06-06 01:21:00,72.0,26.2,29.68,NE,42,1.0,2.0,18,0.00,,,0.00,0,WeatherCatV1.11B39,2013-06-06 08:21:00,
2013-06-06 01:26:00,72.1,26.3,29.68,NE,42,1.0,2.0,18,0.00,,,0.00,0,WeatherCatV1.11B39,2013-06-06 08:26:00,
2013-06-06 01:31:00,71.9,26.1,29.68,NE,42,0.0,1.0,18,0.00,,,0.00,0,WeatherCatV1.11B39,2013-06-06 08:31:00,
2013-06-06 01:36:00,71.1,26.7,29.68,NE,42,0.0,1.0,19,0.00,,,0.00,0,WeatherCatV1.11B39,2013-06-06 08:36:00,
2013-06-06 01:41:00,70.8,25.2,29.68,NE,42,2.0,3.0,18,0.00,,,0.00,0,WeatherCatV1.11B39,2013-06-06 08:41:00,
2013-06-06 01:46:00,70.2,26.0,29.68,NE,41,1.0,2.0,19,0.00,,,0.00,0,WeatherCatV1.11B39,2013-06-06 08:46:00,
2013-06-06 01:51:00,69.9,27.0,29.68,NE,42,1.0,1.0,20,0.00,,,0.00,0,WeatherCatV1.11B39,2013-06-06 08:51:00,
2013-06-06 01:56:00,70.0,27.1,29.68,NE,42,1.0,2.0,20,0.00,,,0.00,0,WeatherCatV1.11B39,2013-06-06 08:56:00,
2013-06-06 02:01:00,69.9,27.0,29.68,NE,42,3.0,3.0,20,0.00,,,0.00,0,WeatherCatV1.11B39,2013-06-06 09:01:00,
2013-06-06 02:06:00,69.9,27.0,29.68,NE,42,1.0,1.0,20,0.00,,,0.00,0,WeatherCatV1.11B39,2013-06-06 09:06:00,
2013-06-06 02:11:00,69.4,26.6,29.68,NE,42,2.0,2.0,20,0.00,,,0.00,0,WeatherCatV1.11B39,2013-06-06 09:11:00,
2013-06-06 02:16:00,68.7,27.2,29.68,NE,42,3.0,3.0,21,0.00,,,0.00,0,WeatherCatV1.11B39,2013-06-06 09:16:00,
2013-06-06 02:21:00,68.3,26.9,29.68,NE,42,2.0,3.0,21,0.00,,,0.00,0,WeatherCatV1.11B39,2013-06-06 09:21:00,
2013-06-06 02:26:00,67.7,27.5,29.68,NE,41,1.0,2.0,22,0.00,,,0.00,0,WeatherCatV1.11B39,2013-06-06 09:26:00,
2013-06-06 02:31:00,67.5,27.3,29.68,NE,41,2.0,3.0,22,0.00,,,0.00,0,WeatherCatV1.11B39,2013-06-06 09:31:00,
2013-06-06 02:36:00,67.3,28.2,29.68,NE,41,1.0,3.0,23,0.00,,,0.00,0,WeatherCatV1.11B39,2013-06-06 09:36:00,
2013-06-06 02:41:00,67.2,28.1,29.68,NE,42,1.0,2.0,23,0.00,,,0.00,0,WeatherCatV1.11B39,2013-06-06 09:41:00,
2013-06-06 02:46:00,67.1,28.1,29.68,NE,42,1.0,1.0,23,0.00,,,0.00,0,WeatherCatV1.11B39,2013-06-06 09:46:00,
2013-06-06 02:51:00,67.1,28.1,29.68,NE,42,2.0,2.0,23,0.00,,,0.00,0,WeatherCatV1.11B39,2013-06-06 09:51:00,
2013-06-06 02:56:00,66.7,27.7,29.68,NE,42,0.0,1.0,23,0.00,,,0.00,0,WeatherCatV1.11B39,2013-06-06 09:56:00,
2013-06-06 03:01:00,66.7,27.7,29.68,NE,41,1.0,1.0,23,0.00,,,0.00,0,WeatherCatV1.11B39,2013-06-06 10:01:00,
2013-06-06 03:06:00,66.3,27.4,29.68,NE,42,1.0,2.0,23,0.00,,,0.00,0,WeatherCatV1.11B39,2013-06-06 10:06:00,
2013-06-06 03:11:00,65.9,27.1,29.68,NE,42,1.0,2.0,23,0.00,,,0.00,0,WeatherCatV1.11B39,2013-06-06 10:11:00,
2013-06-06 03:16:00,65.8,28.0,29.68,NE,42,2.0,3.0,24,0.00,,,0.00,0,WeatherCatV1.11B39,2013-06-06 10:16:00,
2013-06-06 03:21:00,66.0,28.2,29.67,NE,42,2.0,3.0,24,0.00,,,0.00,0,WeatherCatV1.11B39,2013-06-06 10:21:00,
2013-06-06 03:26:00,65.9,28.1,29.67,NE,42,1.0,2.0,24,0.00,,,0.00,0,WeatherCatV1.11B39,2013-06-06 10:26:00,
2013-06-06 03:31:00,65.8,28.0,29.68,NE,42,0.0,1.0,24,0.00,,,0.00,0,WeatherCatV1.11B39,2013-06-06 10:31:00,
2013-06-06 03:36:00,65.5,27.8,29.68,NE,42,1.0,1.0,24,0.00,,,0.00,0,WeatherCatV1.11B39,2013-06-06 10:36:00,
2013-06-06 03:41:00,65.7,26.9,29.68,NE,42,1.0,2.0,23,0.00,,,0.00,0,WeatherCatV1.11B39,2013-06-06 10:41:00,
2013-06-06 03:46:00,65.7,27.9,29.68,NE,42,0.0,1.0,24,0.00,,,0.00,0,WeatherCatV1.11B39,2013-06-06 10:46:00,
2013-06-06 03:51:00,64.8,28.2,29.68,NE,42,1.0,2.0,25,0.00,,,0.00,0,WeatherCatV1.11B39,2013-06-06 10:51:00,
2013-06-06 03:56:00,64.6,27.0,29.68,NE,42,1.0,1.0,24,0.00,,,0.00,0,WeatherCatV1.11B39,2013-06-06 10:56:00,
2013-06-06 04:01:00,64.5,26.9,29.68,NE,42,0.0,0.0,24,0.00,,,0.00,0,WeatherCatV1.11B39,2013-06-06 11:01:00,
2013-06-06 04:06:00,64.3,27.7,29.68,NE,42,0.0,0.0,25,0.00,,,0.00,0,WeatherCatV1.11B39,2013-06-06 11:06:00,
2013-06-06 04:11:00,63.7,28.2,29.68,NE,42,0.0,0.0,26,0.00,,,0.00,0,WeatherCatV1.11B39,2013-06-06 11:11:00,
2013-06-06 04:16:00,63.0,28.5,29.68,NE,42,0.0,0.0,27,0.00,,,0.00,0,WeatherCatV1.11B39,2013-06-06 11:16:00,
2013-06-06 04:21:00,62.9,28.4,29.68,NE,42,0.0,0.0,27,0.00,,,0.00,0,WeatherCatV1.11B39,2013-06-06 11:21:00,
2013-06-06 04:26:00,63.0,28.5,29.68,NE,42,0.0,0.0,27,0.00,,,0.00,0,WeatherCatV1.11B39,2013-06-06 11:26:00,
2013-06-06 04:31:00,63.0,28.5,29.68,NE,42,0.0,0.0,27,0.00,,,0.00,0,WeatherCatV1.11B39,2013-06-06 11:31:00,
2013-06-06 04:36:00,62.7,28.2,29.68,NE,42,0.0,1.0,27,0.00,,,0.00,0,WeatherCatV1.11B39,2013-06-06 11:36:00,
2013-06-06 04:41:00,62.5,28.1,29.68,NE,42,0.0,1.0,27,0.00,,,0.00,0,WeatherCatV1.11B39,2013-06-06 11:41:00,
2013-06-06 04:46:00,62.4,28.9,29.68,NE,42,2.0,3.0,28,0.00,,,0.00,0,WeatherCatV1.11B39,2013-06-06 11:46:00,
2013-06-06 04:51:00,62.3,29.6,29.68,NE,42,2.0,2.0,29,0.00,,,0.00,0,WeatherCatV1.11B39,2013-06-06 11:51:00,
2013-06-06 04:56:00,62.0,28.5,29.68,NE,42,0.0,0.0,28,0.00,,,0.00,0,WeatherCatV1.11B39,2013-06-06 11:56:00,
2013-06-06 05:01:00,62.1,28.6,29.68,NE,42,1.0,2.0,28,0.00,,,0.00,0,WeatherCatV1.11B39,2013-06-06 12:01:00,
2013-06-06 05:06:00,61.8,29.2,29.68,NE,42,1.0,1.0,29,0.00,,,0.00,0,WeatherCatV1.11B39,2013-06-06 12:06:00,
2013-06-06 05:11:00,61.7,29.1,29.68,NE,42,1.0,1.0,29,0.00,,,0.00,0,WeatherCatV1.11B39,2013-06-06 12:11:00,
2013-06-06 05:16:00,61.6,29.0,29.68,NE,42,0.0,0.0,29,0.00,,,0.00,5,WeatherCatV1.11B39,2013-06-06 12:16:00,
2013-06-06 05:21:00,61.4,28.9,29.68,NE,42,0.0,0.0,29,0.00,,,0.00,7,WeatherCatV1.11B39,2013-06-06 12:21:00,
2013-06-06 05:26:00,61.4,28.9,29.68,NE,42,0.0,0.0,29,0.00,,,0.00,11,WeatherCatV1.11B39,2013-06-06 12:26:00,
2013-06-06 05:31:00,61.1,28.6,29.69,NE,42,0.0,0.0,29,0.00,,,0.00,12,WeatherCatV1.11B39,2013-06-06 12:31:00,
2013-06-06 05:36:00,61.1,28.6,29.69,NE,42,0.0,0.0,29,0.00,,,0.00,16,WeatherCatV1.11B39,2013-06-06 12:36:00,
2013-06-06 05:41:00,61.3,29.6,29.69,NE,42,0.0,1.0,30,0.00,,,0.00,19,WeatherCatV1.11B39,2013-06-06 12:41:00,
2013-06-06 05:46:00,61.5,29.8,29.69,NE,42,0.0,0.0,30,0.00,,,0.00,35,WeatherCatV1.11B39,2013-06-06 12:46:00,
2013-06-06 05:51:00,62.2,30.4,29.69,NE,42,0.0,0.0,30,0.00,,,0.00,47,WeatherCatV1.11B39,2013-06-06 12:51:00,
2013-06-06 05:56:00,62.5,30.6,29.69,NE,42,0.0,1.0,30,0.00,,,0.00,58,WeatherCatV1.11B39,2013-06-06 12:56:00,
2013-06-06 06:01:00,63.6,32.4,29.69,NE,42,1.0,1.0,31,0.00,,,0.00,72,WeatherCatV1.11B39,2013-06-06 13:01:00,
2013-06-06 06:06:00,64.8,32.6,29.69,NE,42,1.0,1.0,30,0.00,,,0.00,90,WeatherCatV1.11B39,2013-06-06 13:06:00,
2013-06-06 06:11:00,66.1,33.8,29.69,NE,42,0.0,1.0,30,0.00,,,0.00,105,WeatherCatV1.11B39,2013-06-06 13:11:00,
2013-06-06 06:16:00,67.4,32.3,29.69,NE,42,0.0,1.0,27,0.00,,,0.00,121,WeatherCatV1.11B39,2013-06-06 13:16:00,
2013-06-06 06:21:00,68.8,32.5,29.69,NE,42,0.0,1.0,26,0.00,,,0.00,141,WeatherCatV1.11B39,2013-06-06 13:21:00,
2013-06-06 06:26:00,69.4,33.0,29.69,NE,42,0.0,1.0,26,0.00,,,0.00,156,WeatherCatV1.11B39,2013-06-06 13:26:00,
2013-06-06 06:31:00,70.0,33.5,29.69,NE,42,1.0,2.0,26,0.00,,,0.00,172,WeatherCatV1.11B39,2013-06-06 13:31:00,
2013-06-06 06:36:00,71.2,33.6,29.69,NE,41,0.0,0.0,25,0.00,,,0.00,188,WeatherCatV1.11B39,2013-06-06 13:36:00,
2013-06-06 06:41:00,71.9,33.1,29.69,NE,40,0.0,1.0,24,0.00,,,0.00,204,WeatherCatV1.11B39,2013-06-06 13:41:00,
2013-06-06 06:46:00,72.5,34.7,29.69,NE,39,1.0,2.0,25,0.00,,,0.00,218,WeatherCatV1.11B39,2013-06-06 13:46:00,
2013-06-06 06:51:00,73.0,33.0,29.70,NE,39,0.0,2.0,23,0.00,,,0.00,236,WeatherCatV1.11B39,2013-06-06 13:51:00,
2013-06-06 06:56:00,73.4,33.3,29.70,NE,39,0.0,3.0,23,0.00,,,0.00,251,WeatherCatV1.11B39,2013-06-06 13:56:00,
2013-06-06 07:01:00,74.0,31.6,29.70,NE,39,0.0,2.0,21,0.00,,,0.00,265,WeatherCatV1.11B39,2013-06-06 14:01:00,
2013-06-06 07:06:00,74.8,31.0,29.70,NE,39,1.0,2.0,20,0.00,,,0.00,285,WeatherCatV1.11B39,2013-06-06 14:06:00,
2013-06-06 07:11:00,75.3,31.4,29.70,NE,40,1.0,1.0,20,0.00,,,0.00,301,WeatherCatV1.11B39,2013-06-06 14:11:00,
2013-06-06 07:16:00,76.3,31.0,29.70,NE,39,1.0,1.0,19,0.00,,,0.00,315,WeatherCatV1.11B39,2013-06-06 14:16:00,
2013-06-06 07:21:00,77.0,31.6,29.70,NE,39,0.0,1.0,19,0.00,,,0.00,334,WeatherCatV1.11B39,2013-06-06 14:21:00,
2013-06-06 07:26:00,77.9,32.3,29.70,NE,39,0.0,1.0,19,0.00,,,0.00,350,WeatherCatV1.11B39,2013-06-06 14:26:00,
2013-06-06 07:31:00,78.9,28.9,29.70,NE,39,1.0,1.0,16,0.00,,,0.00,366,WeatherCatV1.11B39,2013-06-06 14:31:00,
2013-06-06 07:36:00,79.2,29.1,29.70,NE,39,0.0,0.0,16,0.00,,,0.00,385,WeatherCatV1.11B39,2013-06-06 14:36:00,
2013-06-06 07:41:00,79.9,29.7,29.70,NE,40,2.0,2.0,16,0.00,,,0.00,399,WeatherCatV1.11B39,2013-06-06 14:41:00,
2013-06-06 07:46:00,80.9,28.9,29.70,NE,39,0.0,2.0,15,0.00,,,0.00,415,WeatherCatV1.11B39,2013-06-06 14:46:00,
2013-06-06 07:51:00,81.3,29.2,29.70,NE,39,2.0,3.0,15,0.00,,,0.00,434,WeatherCatV1.11B39,2013-06-06 14:51:00,
2013-06-06 07:56:00,81.6,29.5,29.71,NE,39,1.0,2.0,15,0.00,,,0.00,448,WeatherCatV1.11B39,2013-06-06 14:56:00,
2013-06-06 08:01:00,82.1,29.9,29.71,NE,38,0.0,1.0,15,0.00,,,0.00,464,WeatherCatV1.11B39,2013-06-06 15:01:00,
2013-06-06 08:06:00,82.1,29.9,29.71,West,274,2.0,3.0,15,0.00,,,0.00,482,WeatherCatV1.11B39,2013-06-06 15:06:00,
2013-06-06 08:12:00,83.0,30.6,29.71,West,276,0.0,1.0,15,0.00,,,0.00,497,WeatherCatV1.11B39,2013-06-06 15:12:00,
2013-06-06 08:17:00,83.4,29.2,29.71,West,276,0.0,1.0,14,0.00,,,0.00,512,WeatherCatV1.11B39,2013-06-06 15:17:00,
2013-06-06 08:22:00,84.3,31.6,29.71,West,276,0.0,2.0,15,0.00,,,0.00,529,WeatherCatV1.11B39,2013-06-06 15:22:00,
2013-06-06 08:27:00,84.6,30.1,29.71,West,277,2.0,3.0,14,0.00,,,0.00,543,WeatherCatV1.11B39,2013-06-06 15:27:00,
2013-06-06 08:32:00,85.3,30.7,29.71,West,277,3.0,3.0,14,0.00,,,0.00,559,WeatherCatV1.11B39,2013-06-06 15:32:00,
2013-06-06 08:37:00,85.0,30.5,29.71,West,276,1.0,1.0,14,0.00,,,0.00,575,WeatherCatV1.11B39,2013-06-06 15:37:00,
2013-06-06 08:42:00,85.2,30.6,29.71,West,279,0.0,3.0,14,0.00,,,0.00,591,WeatherCatV1.11B39,2013-06-06 15:42:00,
2013-06-06 08:47:00,85.9,29.3,29.71,West,279,1.0,3.0,13,0.00,,,0.00,603,WeatherCatV1.11B39,2013-06-06 15:47:00,
2013-06-06 08:52:00,87.0,32.0,29.71,West,279,2.0,3.0,14,0.00,,,0.00,621,WeatherCatV1.11B39,2013-06-06 15:52:00,
2013-06-06 08:57:00,87.6,30.7,29.71,West,279,0.0,1.0,13,0.00,,,0.00,635,WeatherCatV1.11B39,2013-06-06 15:57:00,
2013-06-06 09:02:00,87.4,30.5,29.71,West,279,0.0,1.0,13,0.00,,,0.00,647,WeatherCatV1.11B39,2013-06-06 16:02:00,
2013-06-06 09:07:00,87.9,30.9,29.71,West,261,0.0,4.0,13,0.00,,,0.00,663,WeatherCatV1.11B39,2013-06-06 16:07:00,
2013-06-06 09:12:00,88.5,31.4,29.71,South,188,4.0,4.0,13,0.00,,,0.00,677,WeatherCatV1.11B39,2013-06-06 16:12:00,
2013-06-06 09:17:00,88.5,31.4,29.71,South,186,0.0,1.0,13,0.00,,,0.00,691,WeatherCatV1.11B39,2013-06-06 16:17:00,
2013-06-06 09:22:00,89.0,31.8,29.71,South,184,0.0,3.0,13,0.00,,,0.00,707,WeatherCatV1.11B39,2013-06-06 16:22:00,
2013-06-06 09:26:00,89.2,31.9,29.71,WSW,255,1.0,3.0,13,0.00,,,0.00,719,WeatherCatV1.11B39,2013-06-06 16:26:00,
2013-06-06 09:32:00,89.5,32.1,29.71,WSW,240,2.0,6.0,13,0.00,,,0.00,729,WeatherCatV1.11B39,2013-06-06 16:32:00,
2013-06-06 09:37:00,90.0,30.5,29.71,West,266,1.0,1.0,12,0.00,,,0.00,745,WeatherCatV1.11B39,2013-06-06 16:37:00,
2013-06-06 09:42:00,89.3,30.0,29.71,West,267,0.0,2.0,12,0.00,,,0.00,756,WeatherCatV1.11B39,2013-06-06 16:42:00,
2013-06-06 09:47:00,90.1,30.6,29.70,SSW,205,2.0,4.0,12,0.00,,,0.00,766,WeatherCatV1.11B39,2013-06-06 16:47:00,
2013-06-06 09:52:00,90.8,31.2,29.70,West,272,1.0,3.0,12,0.00,,,0.00,780,WeatherCatV1.11B39,2013-06-06 16:52:00,
2013-06-06 09:57:00,89.8,30.4,29.70,NNW,336,2.0,4.0,12,0.00,,,0.00,793,WeatherCatV1.11B39,2013-06-06 16:57:00,
2013-06-06 10:02:00,90.3,30.8,29.70,West,265,4.0,4.0,12,0.00,,,0.00,802,WeatherCatV1.11B39,2013-06-06 17:02:00,
2013-06-06 10:07:00,92.3,30.2,29.70,West,267,5.0,7.0,11,0.00,,,0.00,814,WeatherCatV1.11B39,2013-06-06 17:07:00,
2013-06-06 10:12:00,92.7,30.5,29.70,SSW,196,1.0,3.0,11,0.00,,,0.00,823,WeatherCatV1.11B39,2013-06-06 17:12:00,
2013-06-06 10:17:00,93.1,30.8,29.70,SSW,211,1.0,5.0,11,0.00,,,0.00,831,WeatherCatV1.11B39,2013-06-06 17:17:00,
2013-06-06 10:22:00,94.1,31.5,29.69,SSW,207,0.0,4.0,11,0.00,,,0.00,846,WeatherCatV1.11B39,2013-06-06 17:22:00,
2013-06-06 10:27:00,93.5,31.1,29.69,SSW,201,3.0,3.0,11,0.00,,,0.00,849,WeatherCatV1.11B39,2013-06-06 17:27:00,
2013-06-06 10:32:00,92.2,30.1,29.69,SSE,155,0.0,1.0,11,0.00,,,0.00,860,WeatherCatV1.11B39,2013-06-06 17:32:00,
2013-06-06 10:37:00,93.8,31.3,29.69,SSW,213,3.0,9.0,11,0.00,,,0.00,870,WeatherCatV1.11B39,2013-06-06 17:37:00,
2013-06-06 10:42:00,95.6,30.3,29.69,SW,228,1.0,4.0,10,0.00,,,0.00,879,WeatherCatV1.11B39,2013-06-06 17:42:00,
2013-06-06 10:47:00,95.1,30.0,29.69,SW,230,2.0,3.0,10,0.00,,,0.00,888,WeatherCatV1.11B39,2013-06-06 17:47:00,
2013-06-06 10:52:00,94.6,29.6,29.69,South,184,1.0,2.0,10,0.00,,,0.00,898,WeatherCatV1.11B39,2013-06-06 17:52:00,
2013-06-06 10:57:00,95.1,32.3,29.69,SSW,204,1.0,5.0,11,0.00,,,0.00,902,WeatherCatV1.11B39,2013-06-06 17:57:00,
2013-06-06 11:02:00,95.3,30.1,29.69,WSW,252,3.0,7.0,10,0.00,,,0.00,907,WeatherCatV1.11B39,2013-06-06 18:02:00,
2013-06-06 11:07:00,96.5,31.0,29.69,SSW,213,3.0,7.0,10,0.00,,,0.00,916,WeatherCatV1.11B39,2013-06-06 18:07:00,
2013-06-06 11:12:00,96.1,30.7,29.69,WSW,251,8.0,8.0,10,0.00,,,0.00,923,WeatherCatV1.11B39,2013-06-06 18:12:00,
2013-06-06 11:17:00,94.7,29.7,29.69,West,262,5.0,5.0,10,0.00,,,0.00,928,WeatherCatV1.11B39,2013-06-06 18:17:00,
2013-06-06 11:22:00,95.8,30.5,29.68,WSW,257,1.0,3.0,10,0.00,,,0.00,930,WeatherCatV1.11B39,2013-06-06 18:22:00,
2013-06-06 11:27:00,96.5,31.0,29.68,WNW,284,2.0,6.0,10,0.00,,,0.00,939,WeatherCatV1.11B39,2013-06-06 18:27:00,
2013-06-06 11:32:00,95.8,30.5,29.68,WNW,300,3.0,5.0,10,0.00,,,0.00,942,WeatherCatV1.11B39,2013-06-06 18:32:00,
2013-06-06 11:37:00,96.3,30.9,29.68,West,272,7.0,8.0,10,0.00,,,0.00,946,WeatherCatV1.11B39,2013-06-06 18:37:00,
2013-06-06 11:42:00,97.3,31.6,29.68,SW,228,1.0,5.0,10,0.00,,,0.00,949,WeatherCatV1.11B39,2013-06-06 18:42:00,
2013-06-06 11:47:00,98.4,32.4,29.68,WSW,245,1.0,3.0,10,0.00,,,0.00,951,WeatherCatV1.11B39,2013-06-06 18:47:00,
2013-06-06 11:52:00,99.3,30.5,29.67,WNW,284,3.0,6.0,9,0.00,,,0.00,958,WeatherCatV1.11B39,2013-06-06 18:52:00,
2013-06-06 11:57:00,99.4,30.6,29.67,WSW,241,5.0,6.0,9,0.00,,,0.00,960,WeatherCatV1.11B39,2013-06-06 18:57:00,
2013-06-06 12:02:00,99.8,30.9,29.67,SSW,213,2.0,10.0,9,0.00,,,0.00,960,WeatherCatV1.11B39,2013-06-06 19:02:00,
2013-06-06 12:07:00,99.8,30.9,29.67,NW,313,6.0,6.0,9,0.00,,,0.00,963,WeatherCatV1.11B39,2013-06-06 19:07:00,
2013-06-06 12:12:00,99.0,30.3,29.67,NNW,343,2.0,5.0,9,0.00,,,0.00,965,WeatherCatV1.11B39,2013-06-06 19:12:00,
2013-06-06 12:17:00,99.1,30.4,29.66,SW,227,4.0,9.0,9,0.00,,,0.00,962,WeatherCatV1.11B39,2013-06-06 19:17:00,
2013-06-06 12:22:00,100.8,31.6,29.66,WSW,250,5.0,7.0,9,0.00,,,0.00,969,WeatherCatV1.11B39,2013-06-06 19:22:00,
2013-06-06 12:27:00,100.3,31.2,29.66,SSW,212,3.0,5.0,9,0.00,,,0.00,965,WeatherCatV1.11B39,2013-06-06 19:27:00,
2013-06-06 12:32:00,100.8,31.6,29.66,SW,232,8.0,9.0,9,0.00,,,0.00,960,WeatherCatV1.11B39,2013-06-06 19:32:00,
2013-06-06 12:33:00,101.1,31.8,29.66,South,182,7.0,9.0,9,0.00,,,0.00,963,WeatherCatV1.11B39,2013-06-06 19:33:00,
2013-06-06 12:37:00,101.3,32.0,29.66,SSW,205,3.0,7.0,9,0.00,,,0.00,963,WeatherCatV1.11B39,2013-06-06 19:37:00,
2013-06-06 12:41:00,101.7,29.4,29.66,WSW,238,3.0,6.0,8,0.00,,,0.00,962,WeatherCatV1.11B39,2013-06-06 19:41:00,
2013-06-06 12:46:00,102.3,29.8,29.66,West,267,9.0,12.0,8,0.00,,,0.00,962,WeatherCatV1.11B39,2013-06-06 19:46:00,
2013-06-06 12:51:00,101.8,29.4,29.65,SW,215,7.0,13.0,8,0.00,,,0.00,960,WeatherCatV1.11B39,2013-06-06 19:51:00,
2013-06-06 12:56:00,101.7,29.4,29.65,SSW,207,5.0,8.0,8,0.00,,,0.00,954,WeatherCatV1.11B39,2013-06-06 19:56:00,
2013-06-06 13:01:00,102.4,29.9,29.65,SSW,192,7.0,11.0,8,0.00,,,0.00,956,WeatherCatV1.11B39,2013-06-06 20:01:00,
2013-06-06 13:06:00,101.8,29.4,29.65,SW,222,2.0,8.0,8,0.00,,,0.00,954,WeatherCatV1.11B39,2013-06-06 20:06:00,
2013-06-06 13:11:00,102.0,29.6,29.65,WSW,254,6.0,9.0,8,0.00,,,0.00,947,WeatherCatV1.11B39,2013-06-06 20:11:00,
2013-06-06 13:16:00,101.0,28.9,29.64,WNW,302,2.0,7.0,8,0.00,,,0.00,946,WeatherCatV1.11B39,2013-06-06 20:16:00,
2013-06-06 13:21:00,101.1,28.9,29.64,SSW,198,7.0,11.0,8,0.00,,,0.00,940,WeatherCatV1.11B39,2013-06-06 20:21:00,
2013-06-06 13:26:00,102.0,29.6,29.64,SSW,205,8.0,13.0,8,0.00,,,0.00,935,WeatherCatV1.11B39,2013-06-06 20:26:00,
2013-06-06 13:31:00,103.4,30.6,29.64,SW,236,11.0,14.0,8,0.00,,,0.00,932,WeatherCatV1.11B39,2013-06-06 20:31:00,
2013-06-06 13:36:00,103.1,30.4,29.64,West,264,7.0,8.0,8,0.00,,,0.00,926,WeatherCatV1.11B39,2013-06-06 20:36:00,
2013-06-06 13:41:00,102.4,29.9,29.63,WNW,291,3.0,7.0,8,0.00,,,0.00,919,WeatherCatV1.11B39,2013-06-06 20:41:00,
2013-06-06 13:46:00,103.3,30.5,29.63,WNW,299,7.0,8.0,8,0.00,,,0.00,914,WeatherCatV1.11B39,2013-06-06 20:46:00,
2013-06-06 13:51:00,102.8,30.2,29.63,WSW,242,6.0,12.0,8,0.00,,,0.00,907,WeatherCatV1.11B39,2013-06-06 20:51:00,
2013-06-06 13:56:00,102.5,30.0,29.63,WNW,282,11.0,12.0,8,0.00,,,0.00,898,WeatherCatV1.11B39,2013-06-06 20:56:00,
2013-06-06 14:01:00,102.4,29.9,29.62,NW,323,5.0,9.0,8,0.00,,,0.00,886,WeatherCatV1.11B39,2013-06-06 21:01:00,
2013-06-06 14:06:00,102.8,30.2,29.62,SW,224,7.0,10.0,8,0.00,,,0.00,881,WeatherCatV1.11B39,2013-06-06 21:06:00,
2013-06-06 14:11:00,103.0,30.3,29.62,West,259,8.0,12.0,8,0.00,,,0.00,875,WeatherCatV1.11B39,2013-06-06 21:11:00,
2013-06-06 14:16:00,103.0,30.3,29.62,NW,324,9.0,9.0,8,0.00,,,0.00,865,WeatherCatV1.11B39,2013-06-06 21:16:00,
2013-06-06 14:21:00,102.5,30.0,29.62,West,270,7.0,11.0,8,0.00,,,0.00,854,WeatherCatV1.11B39,2013-06-06 21:21:00,
2013-06-06 14:26:00,103.4,30.6,29.61,SSW,205,4.0,8.0,8,0.00,,,0.00,844,WeatherCatV1.11B39,2013-06-06 21:26:00,
2013-06-06 14:31:00,104.3,31.3,29.61,WNW,297,8.0,15.0,8,0.00,,,0.00,835,WeatherCatV1.11B39,2013-06-06 21:31:00,
2013-06-06 14:36:00,102.7,30.1,29.61,WNW,286,12.0,12.0,8,0.00,,,0.00,826,WeatherCatV1.11B39,2013-06-06 21:36:00,
2013-06-06 14:41:00,103.3,30.5,29.61,West,269,8.0,9.0,8,0.00,,,0.00,816,WeatherCatV1.11B39,2013-06-06 21:41:00,
2013-06-06 14:46:00,103.7,30.8,29.61,SSW,204,3.0,7.0,8,0.00,,,0.00,805,WeatherCatV1.11B39,2013-06-06 21:46:00,
2013-06-06 14:51:00,103.8,30.9,29.60,South,187,5.0,7.0,8,0.00,,,0.00,793,WeatherCatV1.11B39,2013-06-06 21:51:00,
2013-06-06 14:56:00,103.9,31.0,29.60,West,269,7.0,11.0,8,0.00,,,0.00,782,WeatherCatV1.11B39,2013-06-06 21:56:00,
2013-06-06 15:01:00,103.1,30.4,29.60,West,274,5.0,7.0,8,0.00,,,0.00,772,WeatherCatV1.11B39,2013-06-06 22:01:00,
2013-06-06 15:06:00,103.6,30.8,29.60,WNW,296,6.0,13.0,8,0.00,,,0.00,759,WeatherCatV1.11B39,2013-06-06 22:06:00,
2013-06-06 15:11:00,102.7,30.1,29.59,West,271,6.0,12.0,8,0.00,,,0.00,745,WeatherCatV1.11B39,2013-06-06 22:11:00,
2013-06-06 15:16:00,102.5,30.0,29.59,West,272,8.0,12.0,8,0.00,,,0.00,733,WeatherCatV1.11B39,2013-06-06 22:16:00,
2013-06-06 15:21:00,102.5,30.0,29.59,West,274,9.0,10.0,8,0.00,,,0.00,722,WeatherCatV1.11B39,2013-06-06 22:21:00,
2013-06-06 15:26:00,102.8,30.2,29.59,WSW,238,8.0,10.0,8,0.00,,,0.00,705,WeatherCatV1.11B39,2013-06-06 22:26:00,
2013-06-06 15:31:00,102.6,30.0,29.59,West,267,7.0,8.0,8,0.00,,,0.00,694,WeatherCatV1.11B39,2013-06-06 22:31:00,
2013-06-06 15:36:00,102.8,30.2,29.59,West,260,8.0,13.0,8,0.00,,,0.00,680,WeatherCatV1.11B39,2013-06-06 22:36:00,
2013-06-06 15:41:00,101.9,29.5,29.59,WSW,257,8.0,8.0,8,0.00,,,0.00,666,WeatherCatV1.11B39,2013-06-06 22:41:00,
2013-06-06 15:46:00,102.9,30.3,29.58,SW,236,5.0,5.0,8,0.00,,,0.00,652,WeatherCatV1.11B39,2013-06-06 22:46:00,
2013-06-06 15:51:00,102.9,30.3,29.58,SW,223,10.0,11.0,8,0.00,,,0.00,638,WeatherCatV1.11B39,2013-06-06 22:51:00,
2013-06-06 15:56:00,103.0,30.3,29.58,West,278,5.0,12.0,8,0.00,,,0.00,622,WeatherCatV1.11B39,2013-06-06 22:56:00,
2013-06-06 16:01:00,102.6,30.0,29.58,NW,321,8.0,12.0,8,0.00,,,0.00,608,WeatherCatV1.11B39,2013-06-06 23:01:00,
2013-06-06 16:06:00,102.3,29.8,29.58,West,274,13.0,15.0,8,0.00,,,0.00,596,WeatherCatV1.11B39,2013-06-06 23:06:00,
2013-06-06 16:11:00,101.9,29.5,29.58,West,280,11.0,12.0,8,0.00,,,0.00,577,WeatherCatV1.11B39,2013-06-06 23:11:00,
2013-06-06 16:16:00,102.4,29.9,29.58,WSW,245,4.0,11.0,8,0.00,,,0.00,563,WeatherCatV1.11B39,2013-06-06 23:16:00,
2013-06-06 16:21:00,102.2,29.7,29.57,NW,314,4.0,10.0,8,0.00,,,0.00,548,WeatherCatV1.11B39,2013-06-06 23:21:00,
2013-06-06 16:26:00,102.4,29.9,29.57,WNW,282,7.0,9.0,8,0.00,,,0.00,531,WeatherCatV1.11B39,2013-06-06 23:26:00,
2013-06-06 16:31:00,102.2,29.7,29.57,West,265,8.0,13.0,8,0.00,,,0.00,515,WeatherCatV1.11B39,2013-06-06 23:31:00,
2013-06-06 16:36:00,102.5,30.0,29.57,West,277,3.0,8.0,8,0.00,,,0.00,501,WeatherCatV1.11B39,2013-06-06 23:36:00,
2013-06-06 16:41:00,103.0,30.3,29.57,SSW,203,4.0,8.0,8,0.00,,,0.00,483,WeatherCatV1.11B39,2013-06-06 23:41:00,
2013-06-06 16:46:00,102.3,29.8,29.57,WSW,247,8.0,14.0,8,0.00,,,0.00,468,WeatherCatV1.11B39,2013-06-06 23:46:00,
2013-06-06 16:51:00,101.8,29.4,29.57,WNW,299,9.0,11.0,8,0.00,,,0.00,454,WeatherCatV1.11B39,2013-06-06 23:51:00,
2013-06-06 16:56:00,102.2,29.7,29.56,West,281,7.0,12.0,8,0.00,,,0.00,436,WeatherCatV1.11B39,2013-06-06 23:56:00,
2013-06-06 17:01:00,102.4,29.9,29.56,West,281,6.0,9.0,8,0.00,,,0.00,420,WeatherCatV1.11B39,2013-06-07 00:01:00,
2013-06-06 17:06:00,101.9,29.5,29.56,SW,233,3.0,10.0,8,0.00,,,0.00,404,WeatherCatV1.11B39,2013-06-07 00:06:00,
2013-06-06 17:11:00,101.6,29.3,29.56,NNW,332,3.0,11.0,8,0.00,,,0.00,385,WeatherCatV1.11B39,2013-06-07 00:11:00,
2013-06-06 17:16:00,101.0,28.9,29.56,West,274,4.0,8.0,8,0.00,,,0.00,369,WeatherCatV1.11B39,2013-06-07 00:16:00,
2013-06-06 17:21:00,101.7,29.4,29.56,WNW,293,5.0,8.0,8,0.00,,,0.00,352,WeatherCatV1.11B39,2013-06-07 00:21:00,
2013-06-06 17:26:00,102.1,29.7,29.56,West,264,3.0,9.0,8,0.00,,,0.00,336,WeatherCatV1.11B39,2013-06-07 00:26:00,
2013-06-06 17:31:00,101.2,29.0,29.56,West,259,5.0,5.0,8,0.00,,,0.00,320,WeatherCatV1.11B39,2013-06-07 00:31:00,
2013-06-06 17:36:00,101.2,29.0,29.56,West,276,7.0,11.0,8,0.00,,,0.00,301,WeatherCatV1.11B39,2013-06-07 00:36:00,
2013-06-06 17:41:00,101.1,28.9,29.56,SW,230,4.0,8.0,8,0.00,,,0.00,285,WeatherCatV1.11B39,2013-06-07 00:41:00,
2013-06-06 17:46:00,100.8,28.7,29.56,WSW,245,3.0,9.0,8,0.00,,,0.00,269,WeatherCatV1.11B39,2013-06-07 00:46:00,
2013-06-06 17:51:00,100.9,28.8,29.56,SSW,209,8.0,10.0,8,0.00,,,0.00,250,WeatherCatV1.11B39,2013-06-07 00:51:00,
2013-06-06 17:56:00,100.8,28.7,29.56,West,276,5.0,11.0,8,0.00,,,0.00,234,WeatherCatV1.11B39,2013-06-07 00:56:00,
2013-06-06 18:01:00,100.3,28.4,29.56,WSW,240,3.0,9.0,8,0.00,,,0.00,218,WeatherCatV1.11B39,2013-06-07 01:01:00,
2013-06-06 18:06:00,100.6,28.6,29.56,West,266,7.0,11.0,8,0.00,,,0.00,197,WeatherCatV1.11B39,2013-06-07 01:06:00,
2013-06-06 18:11:00,100.2,28.3,29.56,NW,317,7.0,7.0,8,0.00,,,0.00,179,WeatherCatV1.11B39,2013-06-07 01:11:00,
2013-06-06 18:16:00,99.7,27.9,29.56,WNW,285,3.0,6.0,8,0.00,,,0.00,162,WeatherCatV1.11B39,2013-06-07 01:16:00,
2013-06-06 18:21:00,99.5,27.8,29.56,WNW,288,7.0,9.0,8,0.00,,,0.00,141,WeatherCatV1.11B39,2013-06-07 01:21:00,
2013-06-06 18:26:00,99.5,27.8,29.56,West,264,3.0,6.0,8,0.00,,,0.00,123,WeatherCatV1.11B39,2013-06-07 01:26:00,
2013-06-06 18:31:00,99.3,27.6,29.57,West,276,7.0,8.0,8,0.00,,,0.00,109,WeatherCatV1.11B39,2013-06-07 01:31:00,
2013-06-06 18:36:00,99.0,30.3,29.57,West,259,6.0,9.0,9,0.00,,,0.00,90,WeatherCatV1.11B39,2013-06-07 01:36:00,
2013-06-06 18:41:00,98.8,30.1,29.57,West,262,6.0,10.0,9,0.00,,,0.00,77,WeatherCatV1.11B39,2013-06-07 01:41:00,
2013-06-06 18:46:00,98.6,30.0,29.57,West,263,3.0,8.0,9,0.00,,,0.00,63,WeatherCatV1.11B39,2013-06-07 01:46:00,
2013-06-06 18:51:00,98.3,29.8,29.57,WNW,299,7.0,10.0,9,0.00,,,0.00,51,WeatherCatV1.11B39,2013-06-07 01:51:00,
2013-06-06 18:56:00,97.8,29.4,29.57,NW,323,5.0,6.0,9,0.00,,,0.00,39,WeatherCatV1.11B39,2013-06-07 01:56:00,
2013-06-06 19:01:00,97.2,28.9,29.57,NW,320,0.0,4.0,9,0.00,,,0.00,28,WeatherCatV1.11B39,2013-06-07 02:01:00,
2013-06-06 19:06:00,96.6,31.1,29.57,NW,326,1.0,5.0,10,0.00,,,0.00,19,WeatherCatV1.11B39,2013-06-07 02:06:00,
2013-06-06 19:11:00,96.2,28.2,29.57,NW,312,2.0,9.0,9,0.00,,,0.00,16,WeatherCatV1.11B39,2013-06-07 02:11:00,
2013-06-06 19:16:00,96.0,28.1,29.57,NW,305,5.0,8.0,9,0.00,,,0.00,12,WeatherCatV1.11B39,2013-06-07 02:16:00,
2013-06-06 19:21:00,95.8,27.9,29.57,NNW,330,3.0,7.0,9,0.00,,,0.00,9,WeatherCatV1.11B39,2013-06-07 02:21:00,
2013-06-06 19:26:00,95.5,27.7,29.57,NW,319,2.0,5.0,9,0.00,,,0.00,5,WeatherCatV1.11B39,2013-06-07 02:26:00,
2013-06-06 19:31:00,95.0,29.9,29.58,North,5,6.0,6.0,10,0.00,,,0.00,0,WeatherCatV1.11B39,2013-06-07 02:31:00,
2013-06-06 19:36:00,94.9,29.8,29.58,NNW,343,4.0,5.0,10,0.00,,,0.00,0,WeatherCatV1.11B39,2013-06-07 02:36:00,
2013-06-06 19:41:00,94.7,29.7,29.58,North,1,3.0,7.0,10,0.00,,,0.00,0,WeatherCatV1.11B39,2013-06-07 02:41:00,
2013-06-06 19:46:00,94.3,29.4,29.58,NNW,338,2.0,5.0,10,0.00,,,0.00,0,WeatherCatV1.11B39,2013-06-07 02:46:00,
2013-06-06 19:51:00,93.8,29.0,29.58,North,0,4.0,6.0,10,0.00,,,0.00,0,WeatherCatV1.11B39,2013-06-07 02:51:00,
2013-06-06 19:56:00,93.5,28.7,29.58,NNE,28,5.0,7.0,10,0.00,,,0.00,0,WeatherCatV1.11B39,2013-06-07 02:56:00,
2013-06-06 20:01:00,93.3,28.6,29.58,North,353,1.0,3.0,10,0.00,,,0.00,0,WeatherCatV1.11B39,2013-06-07 03:01:00,
2013-06-06 20:06:00,93.1,28.4,29.58,NNW,330,1.0,3.0,10,0.00,,,0.00,0,WeatherCatV1.11B39,2013-06-07 03:06:00,
2013-06-06 20:11:00,93.0,28.4,29.58,NNW,348,3.0,8.0,10,0.00,,,0.00,0,WeatherCatV1.11B39,2013-06-07 03:11:00,
2013-06-06 20:16:00,93.3,28.6,29.58,NNW,343,7.0,7.0,10,0.00,,,0.00,0,WeatherCatV1.11B39,2013-06-07 03:16:00,
2013-06-06 20:21:00,93.7,28.9,29.59,NNW,348,3.0,7.0,10,0.00,,,0.00,0,WeatherCatV1.11B39,2013-06-07 03:21:00,
2013-06-06 20:26:00,93.7,28.9,29.59,North,7,3.0,8.0,10,0.00,,,0.00,0,WeatherCatV1.11B39,2013-06-07 03:26:00,
2013-06-06 20:31:00,93.5,28.7,29.59,North,11,4.0,8.0,10,0.00,,,0.00,0,WeatherCatV1.11B39,2013-06-07 03:31:00,
2013-06-06 20:36:00,93.2,28.5,29.59,NNE,20,5.0,6.0,10,0.00,,,0.00,0,WeatherCatV1.11B39,2013-06-07 03:36:00,
2013-06-06 20:41:00,93.3,28.6,29.59,NNW,343,0.0,1.0,10,0.00,,,0.00,0,WeatherCatV1.11B39,2013-06-07 03:41:00,
2013-06-06 20:46:00,93.1,28.4,29.59,NE,41,5.0,5.0,10,0.00,,,0.00,0,WeatherCatV1.11B39,2013-06-07 03:46:00,
2013-06-06 20:51:00,92.3,30.2,29.60,NE,46,0.0,1.0,11,0.00,,,0.00,0,WeatherCatV1.11B39,2013-06-07 03:51:00,
2013-06-06 20:56:00,91.5,29.6,29.60,NE,46,0.0,0.0,11,0.00,,,0.00,0,WeatherCatV1.11B39,2013-06-07 03:56:00,
2013-06-06 21:01:00,91.2,31.5,29.60,NE,46,0.0,0.0,12,0.00,,,0.00,0,WeatherCatV1.11B39,2013-06-07 04:01:00,
2013-06-06 21:06:00,89.6,30.2,29.60,ESE,103,2.0,5.0,12,0.00,,,0.00,0,WeatherCatV1.11B39,2013-06-07 04:06:00,
2013-06-06 21:11:00,88.6,31.4,29.60,ESE,102,1.0,3.0,13,0.00,,,0.00,0,WeatherCatV1.11B39,2013-06-07 04:11:00,
2013-06-06 21:16:00,87.5,32.4,29.61,ESE,102,1.0,2.0,14,0.00,,,0.00,0,WeatherCatV1.11B39,2013-06-07 04:16:00,
2013-06-06 21:21:00,86.2,31.4,29.61,ESE,102,0.0,1.0,14,0.00,,,0.00,0,WeatherCatV1.11B39,2013-06-07 04:21:00,
2013-06-06 21:26:00,86.4,31.6,29.61,ESE,102,1.0,3.0,14,0.00,,,0.00,0,WeatherCatV1.11B39,2013-06-07 04:26:00,
2013-06-06 21:31:00,86.0,34.6,29.62,ESE,102,0.0,1.0,16,0.00,,,0.00,0,WeatherCatV1.11B39,2013-06-07 04:31:00,
2013-06-06 21:36:00,85.1,32.2,29.62,ESE,102,1.0,2.0,15,0.00,,,0.00,0,WeatherCatV1.11B39,2013-06-07 04:36:00,
2013-06-06 21:41:00,84.4,33.3,29.62,ESE,102,1.0,2.0,16,0.00,,,0.00,0,WeatherCatV1.11B39,2013-06-07 04:41:00,
2013-06-06 21:46:00,84.1,33.0,29.62,East,101,2.0,3.0,16,0.00,,,0.00,0,WeatherCatV1.11B39,2013-06-07 04:46:00,
2013-06-06 21:51:00,83.8,34.3,29.62,East,101,0.0,0.0,17,0.00,,,0.00,0,WeatherCatV1.11B39,2013-06-07 04:51:00,
2013-06-06 21:56:00,82.7,31.9,29.62,East,101,0.0,0.0,16,0.00,,,0.00,0,WeatherCatV1.11B39,2013-06-07 04:56:00,
2013-06-06 22:01:00,81.5,31.0,29.62,East,97,0.0,2.0,16,0.00,,,0.00,0,WeatherCatV1.11B39,2013-06-07 05:01:00,
2013-06-06 22:06:00,81.6,32.5,29.62,East,97,3.0,3.0,17,0.00,,,0.00,0,WeatherCatV1.11B39,2013-06-07 05:06:00,
2013-06-06 22:11:00,81.3,30.8,29.62,East,97,2.0,2.0,16,0.00,,,0.00,0,WeatherCatV1.11B39,2013-06-07 05:11:00,
2013-06-06 22:16:00,80.9,30.5,29.62,East,97,1.0,2.0,16,0.00,,,0.00,0,WeatherCatV1.11B39,2013-06-07 05:16:00,
2013-06-06 22:21:00,81.6,29.5,29.62,East,97,1.0,2.0,15,0.00,,,0.00,0,WeatherCatV1.11B39,2013-06-07 05:21:00,
2013-06-06 22:26:00,81.6,31.0,29.62,East,97,0.0,2.0,16,0.00,,,0.00,0,WeatherCatV1.11B39,2013-06-07 05:26:00,
2013-06-06 22:31:00,81.1,30.6,29.62,East,97,1.0,1.0,16,0.00,,,0.00,0,WeatherCatV1.11B39,2013-06-07 05:31:00,
2013-06-06 22:36:00,80.1,31.3,29.62,East,97,0.0,1.0,17,0.00,,,0.00,0,WeatherCatV1.11B39,2013-06-07 05:36:00,
2013-06-06 22:41:00,79.8,31.1,29.63,East,97,0.0,0.0,17,0.00,,,0.00,0,WeatherCatV1.11B39,2013-06-07 05:41:00,
2013-06-06 22:46:00,79.2,30.6,29.63,East,97,1.0,2.0,17,0.00,,,0.00,0,WeatherCatV1.11B39,2013-06-07 05:46:00,
2013-06-06 22:51:00,78.2,31.2,29.63,East,97,2.0,2.0,18,0.00,,,0.00,0,WeatherCatV1.11B39,2013-06-07 05:51:00,
2013-06-06 22:56:00,78.4,31.4,29.63,East,97,2.0,2.0,18,0.00,,,0.00,0,WeatherCatV1.11B39,2013-06-07 05:56:00,
2013-06-06 23:01:00,78.4,30.0,29.63,East,97,0.0,1.0,17,0.00,,,0.00,0,WeatherCatV1.11B39,2013-06-07 06:01:00,
2013-06-06 23:06:00,78.6,31.5,29.63,East,97,1.0,1.0,18,0.00,,,0.00,0,WeatherCatV1.11B39,2013-06-07 06:06:00,
2013-06-06 23:11:00,78.2,31.2,29.63,East,97,0.0,1.0,18,0.00,,,0.00,0,WeatherCatV1.11B39,2013-06-07 06:11:00,
2013-06-06 23:16:00,77.4,30.6,29.63,East,97,0.0,1.0,18,0.00,,,0.00,0,WeatherCatV1.11B39,2013-06-07 06:16:00,
2013-06-06 23:21:00,76.8,31.4,29.63,East,97,0.0,0.0,19,0.00,,,0.00,0,WeatherCatV1.11B39,2013-06-07 06:21:00,
2013-06-06 23:26:00,76.1,30.8,29.63,East,97,0.0,1.0,19,0.00,,,0.00,0,WeatherCatV1.11B39,2013-06-07 06:26:00,
2013-06-06 23:31:00,75.8,31.9,29.63,East,97,2.0,2.0,20,0.00,,,0.00,0,WeatherCatV1.11B39,2013-06-07 06:31:00,
2013-06-06 23:36:00,75.7,33.0,29.64,SSE,151,3.0,5.0,21,0.00,,,0.00,0,WeatherCatV1.11B39,2013-06-07 06:36:00,
2013-06-06 23:41:00,76.6,31.2,29.64,SSE,149,3.0,4.0,19,0.00,,,0.00,0,WeatherCatV1.11B39,2013-06-07 06:41:00,
2013-06-06 23:46:00,77.9,31.0,29.64,SE,146,0.0,1.0,18,0.00,,,0.00,0,WeatherCatV1.11B39,2013-06-07 06:46:00,
2013-06-06 23:51:00,77.6,32.1,29.64,ESE,109,3.0,4.0,19,0.00,,,0.00,0,WeatherCatV1.11B39,2013-06-07 06:51:00,
2013-06-06 23:56:00,77.6,30.7,29.65,ENE,72,1.0,3.0,18,0.00,,,0.00,0,WeatherCatV1.11B39,2013-06-07 06:56:00,